This is the latest recevied weather packets stored in our database for station/object DB0BGL. If no packets are shown the sender has not sent any weather packets the latest 10 day(s).
| Time | Temp. | Humidity | Pressure | Rain* | Wind** | Luminosity | Snow |
|---|---|---|---|---|---|---|---|
| 1777537737 | 8.89° C | 48% | 0 hPa | 0 mm | - | - | - |
| 1777537135 | 10° C | 47% | 0 hPa | 0 mm | - | - | - |
| 1777536535 | 10.56° C | 45% | 0 hPa | 0 mm | - | - | - |
| 1777535934 | 10° C | 45% | 0 hPa | 0 mm | - | - | - |
| 1777535412 | 9.44° C | 47% | 0 hPa | 0 mm | - | - | - |
| 1777535333 | 9.44° C | 47% | 0 hPa | 0 mm | - | - | - |
| 1777534733 | 8.33° C | 50% | 0 hPa | 0 mm | - | - | - |
| 1777534133 | 7.22° C | 53% | 0 hPa | 0 mm | - | - | - |
| 1777533532 | 8.33° C | 50% | 0 hPa | 0 mm | - | - | - |
| 1777532931 | 10° C | 45% | 0 hPa | 0 mm | - | - | - |
| 1777532331 | 11.11° C | 42% | 0 hPa | 0 mm | - | - | - |
| 1777531730 | 11.11° C | 43% | 0 hPa | 0 mm | - | - | - |
| 1777531129 | 11.11° C | 42% | 0 hPa | 0 mm | - | - | - |
| 1777530529 | 12.22° C | 41% | 0 hPa | 0 mm | - | - | - |
| 1777529928 | 11.11° C | 41% | 0 hPa | 0 mm | - | - | - |
| 1777529328 | 10° C | 43% | 0 hPa | 0 mm | - | - | - |
| 1777528727 | 8.33° C | 48% | 0 hPa | 0 mm | - | - | - |
| 1777528127 | 6.11° C | 100% | 0 hPa | 0 mm | - | - | - |
| 1777527592 | 5° C | 100% | 0 hPa | 0 mm | - | - | - |
| 1777527526 | 5° C | 100% | 0 hPa | 0 mm | - | - | - |
| 1777526925 | 4.44° C | 100% | 0 hPa | 0 mm | - | - | - |
| 1777526325 | 4.44° C | 51% | 0 hPa | 0 mm | - | - | - |
| 1777525724 | 4.44° C | 50% | 0 hPa | 0 mm | - | - | - |
| 1777457361 | 13.89° C | 52% | 0 hPa | 0 mm | - | - | - |
| 1777456761 | 13.89° C | 51% | 0 hPa | 0 mm | - | - | - |
* Rain latest hour (hover to see other rain measurements)
** Current wind speed in m/s (hover to see current wind gust speed)